When you browse on this site, cookies collect data to enhance your experience and personalize the content and advertising you see.
Visit our Privacy Policy to learn more. By continuing to use the site, you agree to this use of cookies and data.
  • In Österreich
  • Länderverzeichnis
  • Für 7 Tage
  • Wassertemperatur
  • Satellitenkarten
  • Wetterkarte
  • News
  • Widgets
  • user-avatar
    Anmelden

    Stündliche Wetter A'ali

    Heute, 27 Juni, Donnerstag

    Zeit Temperatur Niederschläge Wind Luftdruck Luftfeuchtigkeit
    00:00 +37°C° 0 mm 2 m/S 748 mmHg 49%
    01:00 +37°C° 0 mm 3 m/S 748 mmHg 47%
    02:00 +37°C° 0 mm 3 m/S 748 mmHg 46%
    03:00 +37°C° 0 mm 3 m/S 747 mmHg 44%
    04:00 +37°C° 0 mm 3 m/S 748 mmHg 45%
    05:00 +37°C° 0 mm 3 m/S 748 mmHg 46%
    06:00 +37°C° 0 mm 3 m/S 748 mmHg 47%
    07:00 +37°C° 0 mm 3 m/S 748 mmHg 48%
    08:00 +37°C° 0 mm 3 m/S 749 mmHg 48%
    09:00 +38°C° 0 mm 3 m/S 749 mmHg 49%
    10:00 +38°C° 0 mm 3 m/S 748 mmHg 48%
    11:00 +40°C° 0 mm 4 m/S 748 mmHg 48%
    12:00 +40°C° 0 mm 4 m/S 748 mmHg 48%
    13:00 +40°C° 0 mm 4 m/S 748 mmHg 47%
    14:00 +40°C° 0 mm 4 m/S 747 mmHg 46%
    15:00 +40°C° 0 mm 5 m/S 746 mmHg 46%
    16:00 +40°C° 0 mm 4 m/S 746 mmHg 47%
    17:00 +40°C° 0 mm 4 m/S 746 mmHg 49%
    18:00 +38°C° 0 mm 3 m/S 746 mmHg 50%
    19:00 +38°C° 0 mm 3 m/S 746 mmHg 51%
    20:00 +37°C° 0 mm 3 m/S 746 mmHg 53%
    21:00 +37°C° 0 mm 3 m/S 746 mmHg 54%
    22:00 +37°C° 0 mm 4 m/S 746 mmHg 52%
    23:00 +37°C° 0 mm 4 m/S 746 mmHg 51%

    Morgen, 28 Juni, Freitag

    Zeit Temperatur Niederschläge Wind Luftdruck Luftfeuchtigkeit
    00:00 +37°C° 0 mm 5 m/S 746 mmHg 50%
    01:00 +37°C° 0 mm 5 m/S 746 mmHg 48%
    02:00 +37°C° 0 mm 4 m/S 745 mmHg 46%
    03:00 +37°C° 0 mm 4 m/S 745 mmHg 44%
    04:00 +37°C° 0 mm 4 m/S 745 mmHg 44%
    05:00 +37°C° 0 mm 3 m/S 746 mmHg 45%
    06:00 +37°C° 0 mm 3 m/S 746 mmHg 45%
    07:00 +38°C° 0 mm 3 m/S 746 mmHg 44%
    08:00 +38°C° 0 mm 2 m/S 747 mmHg 43%
    09:00 +39°C° 0 mm 2 m/S 747 mmHg 42%
    10:00 +39°C° 0 mm 2 m/S 747 mmHg 41%
    11:00 +40°C° 0 mm 2 m/S 746 mmHg 40%
    12:00 +41°C° 0 mm 2 m/S 746 mmHg 39%
    13:00 +40°C° 0 mm 3 m/S 746 mmHg 40%
    14:00 +40°C° 0 mm 3 m/S 745 mmHg 41%
    15:00 +41°C° 0 mm 4 m/S 745 mmHg 42%
    16:00 +40°C° 0 mm 4 m/S 745 mmHg 43%
    17:00 +40°C° 0 mm 4 m/S 745 mmHg 44%
    18:00 +39°C° 0 mm 3 m/S 745 mmHg 44%
    19:00 +40°C° 0 mm 4 m/S 745 mmHg 44%
    20:00 +38°C° 0 mm 4 m/S 745 mmHg 43%
    21:00 +38°C° 0 mm 4 m/S 746 mmHg 43%
    22:00 +38°C° 0 mm 3 m/S 745 mmHg 44%
    23:00 +38°C° 0 mm 3 m/S 745 mmHg 45%

    übermorgen, 29 Juni, Samstag

    Zeit Temperatur Niederschläge Wind Luftdruck Luftfeuchtigkeit
    00:00 +38°C° 0 mm 3 m/S 745 mmHg 46%
    01:00 +38°C° 0 mm 3 m/S 745 mmHg 45%
    02:00 +38°C° 0 mm 4 m/S 745 mmHg 44%
    03:00 +38°C° 0 mm 4 m/S 745 mmHg 43%
    04:00 +38°C° 0 mm 4 m/S 745 mmHg 43%
    05:00 +38°C° 0 mm 4 m/S 745 mmHg 42%
    06:00 +38°C° 0 mm 4 m/S 746 mmHg 41%
    07:00 +38°C° 0 mm 3 m/S 746 mmHg 44%
    08:00 +39°C° 0 mm 2 m/S 746 mmHg 47%
    09:00 +36°C° 0 mm 0 m/S 746 mmHg 50%
    10:00 +39°C° 0 mm 1 m/S 746 mmHg 47%
    11:00 +40°C° 0 mm 1 m/S 746 mmHg 44%
    12:00 +41°C° 0 mm 2 m/S 746 mmHg 41%
    13:00 +41°C° 0 mm 2 m/S 746 mmHg 41%
    14:00 +42°C° 0 mm 3 m/S 745 mmHg 40%
    15:00 +42°C° 0 mm 3 m/S 745 mmHg 40%
    16:00 +42°C° 0 mm 4 m/S 745 mmHg 40%
    17:00 +41°C° 0 mm 4 m/S 745 mmHg 39%
    18:00 +41°C° 0 mm 5 m/S 745 mmHg 39%
    19:00 +40°C° 0 mm 5 m/S 745 mmHg 41%
    20:00 +40°C° 0 mm 4 m/S 745 mmHg 42%
    21:00 +40°C° 0 mm 4 m/S 746 mmHg 44%
    22:00 +38°C° 0 mm 4 m/S 745 mmHg 47%
    23:00 +38°C° 0 mm 3 m/S 745 mmHg 51%

    30 Juni, Sonntag

    Zeit Temperatur Niederschläge Wind Luftdruck Luftfeuchtigkeit
    00:00 +37°C° 0 mm 3 m/S 745 mmHg 54%
    01:00 +37°C° 0 mm 2 m/S 745 mmHg 54%
    02:00 +37°C° 0 mm 2 m/S 745 mmHg 53%
    03:00 +37°C° 0 mm 2 m/S 745 mmHg 53%
    04:00 +37°C° 0 mm 2 m/S 745 mmHg 51%
    05:00 +38°C° 0 mm 3 m/S 745 mmHg 48%
    06:00 +38°C° 0 mm 3 m/S 746 mmHg 46%
    07:00 +38°C° 0 mm 3 m/S 746 mmHg 47%
    08:00 +38°C° 0 mm 3 m/S 746 mmHg 48%
    09:00 +38°C° 0 mm 3 m/S 747 mmHg 49%
    10:00 +39°C° 0 mm 3 m/S 746 mmHg 47%
    11:00 +39°C° 0 mm 3 m/S 746 mmHg 46%
    12:00 +40°C° 0 mm 3 m/S 746 mmHg 45%
    13:00 +40°C° 0 mm 3 m/S 746 mmHg 44%
    14:00 +41°C° 0 mm 4 m/S 745 mmHg 44%
    15:00 +41°C° 0 mm 4 m/S 745 mmHg 43%
    16:00 +41°C° 0 mm 5 m/S 745 mmHg 44%
    17:00 +40°C° 0 mm 5 m/S 745 mmHg 45%
    18:00 +40°C° 0 mm 6 m/S 745 mmHg 47%
    19:00 +39°C° 0 mm 6 m/S 745 mmHg 48%
    20:00 +39°C° 0 mm 6 m/S 745 mmHg 50%
    21:00 +39°C° 0 mm 6 m/S 746 mmHg 52%
    22:00 +39°C° 0 mm 6 m/S 745 mmHg 51%
    23:00 +39°C° 0 mm 5 m/S 745 mmHg 51%

    1 Juli, Montag

    Zeit Temperatur Niederschläge Wind Luftdruck Luftfeuchtigkeit
    00:00 +39°C° 0 mm 5 m/S 745 mmHg 51%
    01:00 +38°C° 0 mm 4 m/S 745 mmHg 52%
    02:00 +38°C° 0 mm 3 m/S 744 mmHg 53%
    03:00 +37°C° 0 mm 2 m/S 744 mmHg 55%
    04:00 +37°C° 0 mm 3 m/S 745 mmHg 52%
    05:00 +38°C° 0 mm 3 m/S 745 mmHg 50%
    06:00 +38°C° 0 mm 4 m/S 745 mmHg 48%
    07:00 +38°C° 0 mm 4 m/S 746 mmHg 48%
    08:00 +38°C° 0 mm 4 m/S 746 mmHg 48%
    09:00 +38°C° 0 mm 4 m/S 746 mmHg 47%
    10:00 +40°C° 0 mm 5 m/S 746 mmHg 48%
    11:00 +40°C° 0 mm 5 m/S 746 mmHg 49%
    12:00 +40°C° 0 mm 5 m/S 746 mmHg 50%
    13:00 +40°C° 0 mm 6 m/S 746 mmHg 50%
    14:00 +40°C° 0 mm 6 m/S 745 mmHg 51%
    15:00 +40°C° 0 mm 6 m/S 745 mmHg 51%
    16:00 +40°C° 0 mm 7 m/S 745 mmHg 52%
    17:00 +39°C° 0 mm 7 m/S 745 mmHg 52%
    18:00 +39°C° 0 mm 7 m/S 745 mmHg 53%
    19:00 +39°C° 0 mm 6 m/S 746 mmHg 51%
    20:00 +40°C° 0 mm 6 m/S 746 mmHg 48%
    21:00 +40°C° 0 mm 5 m/S 746 mmHg 46%
    22:00 +40°C° 0 mm 5 m/S 746 mmHg 45%
    23:00 +40°C° 0 mm 5 m/S 745 mmHg 44%

    2 Juli, Dienstag

    Zeit Temperatur Niederschläge Wind Luftdruck Luftfeuchtigkeit
    00:00 +40°C° 0 mm 5 m/S 745 mmHg 43%
    01:00 +39°C° 0 mm 6 m/S 745 mmHg 46%
    02:00 +39°C° 0 mm 7 m/S 745 mmHg 50%
    03:00 +38°C° 0 mm 8 m/S 745 mmHg 53%
    04:00 +38°C° 0 mm 8 m/S 745 mmHg 56%
    05:00 +38°C° 0 mm 7 m/S 745 mmHg 59%
    06:00 +38°C° 0 mm 7 m/S 746 mmHg 62%
    07:00 +38°C° 0 mm 8 m/S 746 mmHg 61%
    08:00 +38°C° 0 mm 8 m/S 747 mmHg 59%
    09:00 +38°C° 0 mm 9 m/S 747 mmHg 57%
    10:00 +39°C° 0 mm 9 m/S 747 mmHg 55%
    11:00 +39°C° 0 mm 10 m/S 747 mmHg 53%
    12:00 +39°C° 0 mm 11 m/S 747 mmHg 50%
    13:00 +39°C° 0 mm 11 m/S 747 mmHg 48%
    14:00 +39°C° 0 mm 11 m/S 746 mmHg 46%
    15:00 +41°C° 0 mm 12 m/S 746 mmHg 43%
    16:00 +41°C° 0 mm 11 m/S 746 mmHg 44%
    17:00 +41°C° 0 mm 11 m/S 746 mmHg 44%
    18:00 +40°C° 0 mm 10 m/S 746 mmHg 44%
    19:00 +39°C° 0 mm 10 m/S 746 mmHg 45%
    20:00 +39°C° 0 mm 10 m/S 747 mmHg 47%
    21:00 +39°C° 0 mm 9 m/S 747 mmHg 48%
    22:00 +39°C° 0 mm 9 m/S 746 mmHg 49%
    23:00 +39°C° 0 mm 10 m/S 746 mmHg 50%
    Mehr zeigen